| time (UTC) | temp F | wind direction | speed MPH | gust MPH | rain 1hr in | rain 24hr in | rain mn in | humidity % | barometer mb |
| 20260507161036 | 63 | 49 | 5.0 | 15.0 | 0.00 | 0.00 | 0.00 | 81 | 1021.1 |
| 20260507160537 | 64 | 28 | 3.0 | 14.0 | 0.00 | 0.00 | 0.00 | 81 | 1021.0 |
| 20260507155537 | 63 | 12 | 5.0 | 21.0 | 0.00 | 0.00 | 0.00 | 81 | 1020.9 |
| 20260507155036 | 64 | 328 | 6.0 | 21.0 | 0.00 | 0.00 | 0.00 | 81 | 1020.9 |
| 20260507154545 | 64 | 75 | 5.0 | 17.0 | 0.00 | 0.00 | 0.00 | 81 | 1021.0 |
| 20260507154037 | 64 | 43 | 4.0 | 17.0 | 0.00 | 0.00 | 0.00 | 81 | 1020.9 |
| 20260507153536 | 64 | 36 | 6.0 | 17.0 | 0.00 | 0.00 | 0.00 | 81 | 1020.4 |
| 20260507153046 | 64 | 5 | 4.0 | 17.0 | 0.00 | 0.00 | 0.00 | 81 | 1020.7 |
| 20260507152537 | 63 | 314 | 6.0 | 17.0 | 0.00 | 0.00 | 0.00 | 81 | 1020.6 |
| 20260507152036 | 64 | 295 | 7.0 | 18.0 | 0.00 | 0.00 | 0.00 | 80 | 1020.3 |
| 20260507151545 | 64 | 5 | 6.0 | 18.0 | 0.00 | 0.00 | 0.00 | 80 | 1020.3 |
| 20260507151037 | 64 | 322 | 5.0 | 17.0 | 0.00 | 0.00 | 0.00 | 81 | 1020.2 |
| 20260507150540 | 64 | 44 | 7.0 | 19.0 | 0.00 | 0.00 | 0.00 | 81 | 1019.9 |
| 20260507150043 | 64 | 334 | 3.0 | 19.0 | 0.00 | 0.00 | 0.00 | 82 | 1020.0 |
| 20260507145537 | 63 | 329 | 6.0 | 19.0 | 0.00 | 0.00 | 0.00 | 82 | 1020.1 |
| 20260507145035 | 63 | 360 | 7.0 | 17.0 | 0.00 | 0.00 | 0.00 | 82 | 1020.2 |
| 20260507144549 | 63 | 339 | 4.0 | 23.0 | 0.00 | 0.00 | 0.00 | 82 | 1020.4 |
| 20260507144038 | 63 | 5 | 6.0 | 25.0 | 0.00 | 0.00 | 0.00 | 83 | 1020.4 |
| 20260507143536 | 63 | 360 | 5.0 | 25.0 | 0.00 | 0.00 | 0.00 | 82 | 1020.3 |
| 20260507143051 | 63 | 45 | 4.0 | 15.0 | 0.00 | 0.00 | 0.00 | 83 | 1020.3 |
| 20260507142536 | 63 | 345 | 5.0 | 15.0 | 0.00 | 0.00 | 0.00 | 83 | 1020.2 |
| 20260507142040 | 63 | 346 | 5.0 | 16.0 | 0.00 | 0.00 | 0.00 | 83 | 1020.1 |
| 20260507141600 | 63 | 338 | 6.0 | 18.0 | 0.00 | 0.00 | 0.00 | 83 | 1020.1 |
| 20260507141037 | 63 | 291 | 2.0 | 18.0 | 0.00 | 0.00 | 0.00 | 83 | 1019.9 |
| 20260507140536 | 63 | 15 | 4.0 | 15.0 | 0.00 | 0.00 | 0.00 | 83 | 1019.9 |
| 20260507140052 | 62 | 5 | 3.0 | 14.0 | 0.00 | 0.00 | 0.00 | 83 | 1020.2 |
| 20260507135538 | 63 | 0 | 1.0 | 20.0 | 0.00 | 0.00 | 0.00 | 83 | 1020.2 |
| 20260507135037 | 62 | 352 | 7.0 | 20.0 | 0.00 | 0.00 | 0.00 | 83 | 1020.1 |
| 20260507134551 | 63 | 343 | 2.0 | 18.0 | 0.00 | 0.00 | 0.00 | 83 | 1020.0 |
| 20260507134036 | 63 | 329 | 6.0 | 18.0 | 0.00 | 0.00 | 0.00 | 83 | 1019.8 |
| 20260507133537 | 63 | 42 | 4.0 | 21.0 | 0.00 | 0.00 | 0.00 | 82 | 1020.1 |
| 20260507133050 | 63 | 280 | 4.0 | 21.0 | 0.00 | 0.00 | 0.00 | 82 | 1020.0 |
| 20260507132536 | 63 | 33 | 5.0 | 21.0 | 0.00 | 0.00 | 0.00 | 82 | 1019.9 |
| 20260507132036 | 63 | 55 | 4.0 | 14.0 | 0.00 | 0.00 | 0.00 | 82 | 1019.9 |
| 20260507131550 | 63 | 74 | 4.0 | 14.0 | 0.00 | 0.00 | 0.00 | 82 | 1019.8 |
| 20260507131036 | 63 | 314 | 3.0 | 14.0 | 0.00 | 0.00 | 0.00 | 82 | 1019.9 |
| 20260507130537 | 63 | 22 | 4.0 | 15.0 | 0.00 | 0.00 | 0.00 | 82 | 1019.8 |
| 20260507130051 | 63 | 346 | 4.0 | 15.0 | 0.00 | 0.00 | 0.00 | 81 | 1019.9 |
| 20260507125536 | 63 | 133 | 3.0 | 19.0 | 0.00 | 0.00 | 0.00 | 81 | 1020.0 |
| 20260507125036 | 63 | 334 | 5.0 | 19.0 | 0.00 | 0.00 | 0.00 | 81 | 1019.8 |
| 20260507124543 | 63 | 19 | 4.0 | 14.0 | 0.00 | 0.00 | 0.00 | 81 | 1019.7 |
| 20260507124039 | 63 | 340 | 4.0 | 14.0 | 0.00 | 0.00 | 0.00 | 81 | 1019.5 |
| 20260507123537 | 63 | 46 | 4.0 | 18.0 | 0.00 | 0.00 | 0.00 | 80 | 1019.5 |
| 20260507123046 | 63 | 5 | 4.0 | 18.0 | 0.00 | 0.00 | 0.00 | 81 | 1019.4 |
| 20260507122536 | 63 | 352 | 4.0 | 14.0 | 0.00 | 0.00 | 0.00 | 80 | 1019.4 |
| 20260507122038 | 64 | 53 | 4.0 | 14.0 | 0.00 | 0.00 | 0.00 | 80 | 1019.5 |
| 20260507121540 | 64 | 319 | 3.0 | 13.0 | 0.00 | 0.00 | 0.00 | 80 | 1019.4 |
| 20260507121037 | 64 | 340 | 3.0 | 13.0 | 0.00 | 0.00 | 0.00 | 80 | 1019.6 |
| 20260507120536 | 64 | 29 | 3.0 | 11.0 | 0.00 | 0.00 | 0.00 | 80 | 1019.5 |
| 20260507120039 | 64 | 334 | 2.0 | 11.0 | 0.00 | 0.00 | 0.00 | 80 | 1019.5 |
| 20260507115536 | 64 | 0 | 2.0 | 12.0 | 0.00 | 0.00 | 0.00 | 80 | 1019.4 |
| 20260507115037 | 64 | 43 | 3.0 | 12.0 | 0.00 | 0.00 | 0.00 | 80 | 1019.2 |
| 20260507114553 | 64 | 30 | 3.0 | 10.0 | 0.00 | 0.00 | 0.00 | 79 | 1018.9 |
| 20260507114035 | 64 | 40 | 4.0 | 10.0 | 0.00 | 0.00 | 0.00 | 79 | 1018.9 |
| 20260507113534 | 64 | 24 | 2.0 | 9.0 | 0.00 | 0.00 | 0.00 | 80 | 1018.6 |
| 20260507113044 | 64 | 344 | 1.0 | 10.0 | 0.00 | 0.00 | 0.00 | 80 | 1018.6 |
| 20260507112534 | 64 | 12 | 2.0 | 10.0 | 0.00 | 0.00 | 0.00 | 80 | 1018.5 |
| 20260507112033 | 64 | 0 | 1.0 | 8.0 | 0.00 | 0.00 | 0.00 | 80 | 1018.6 |
| 20260507111553 | 64 | 46 | 0.0 | 11.0 | 0.00 | 0.00 | 0.00 | 80 | 1018.6 |
| 20260507111033 | 64 | 26 | 1.0 | 11.0 | 0.00 | 0.00 | 0.00 | 80 | 1018.9 |
| 20260507110534 | 64 | 352 | 2.0 | 15.0 | 0.00 | 0.00 | 0.00 | 80 | 1018.6 |
| 20260507110049 | 64 | 0 | 3.0 | 15.0 | 0.00 | 0.00 | 0.00 | 79 | 1018.6 |
| 20260507105534 | 64 | 34 | 3.0 | 12.0 | 0.00 | 0.00 | 0.00 | 79 | 1018.6 |
| 20260507105034 | 64 | 9 | 4.0 | 12.0 | 0.00 | 0.00 | 0.00 | 79 | 1018.3 |
| 20260507104540 | 64 | 0 | 2.0 | 16.0 | 0.00 | 0.00 | 0.00 | 79 | 1018.2 |
| 20260507104034 | 64 | 326 | 6.0 | 17.0 | 0.00 | 0.00 | 0.00 | 79 | 1017.9 |
| 20260507103535 | 64 | 307 | 5.0 | 17.0 | 0.00 | 0.00 | 0.00 | 79 | 1017.8 |
| 20260507103045 | 64 | 322 | 3.0 | 16.0 | 0.00 | 0.00 | 0.00 | 79 | 1017.8 |
| 20260507102534 | 64 | 86 | 5.0 | 16.0 | 0.00 | 0.00 | 0.00 | 79 | 1018.0 |
| 20260507102035 | 64 | 18 | 2.0 | 15.0 | 0.00 | 0.00 | 0.00 | 79 | 1017.8 |
| 20260507101556 | 64 | 15 | 4.0 | 15.0 | 0.00 | 0.00 | 0.00 | 79 | 1017.9 |
| 20260507101034 | 64 | 28 | 3.0 | 15.0 | 0.00 | 0.00 | 0.00 | 79 | 1017.9 |
| 20260507100535 | 64 | 5 | 4.0 | 13.0 | 0.00 | 0.00 | 0.00 | 79 | 1017.7 |
| 20260507100047 | 64 | 352 | 2.0 | 12.0 | 0.00 | 0.00 | 0.00 | 79 | 1017.9 |
| 20260507095535 | 64 | 348 | 2.0 | 12.0 | 0.00 | 0.00 | 0.00 | 80 | 1017.8 |
| 20260507095034 | 64 | 0 | 2.0 | 14.0 | 0.00 | 0.00 | 0.00 | 79 | 1017.6 |
| 20260507094542 | 64 | 334 | 4.0 | 14.0 | 0.00 | 0.00 | 0.00 | 79 | 1017.7 |
| 20260507094034 | 64 | 318 | 2.0 | 15.0 | 0.00 | 0.00 | 0.00 | 79 | 1017.9 |
| 20260507093534 | 64 | 360 | 3.0 | 15.0 | 0.00 | 0.00 | 0.00 | 79 | 1017.8 |
| 20260507093045 | 64 | 315 | 4.0 | 10.0 | 0.00 | 0.00 | 0.00 | 79 | 1017.8 |
| 20260507092534 | 64 | 9 | 1.0 | 10.0 | 0.00 | 0.00 | 0.00 | 80 | 1018.0 |
| 20260507092035 | 64 | 26 | 3.0 | 10.0 | 0.00 | 0.00 | 0.00 | 80 | 1017.9 |
| 20260507091545 | 64 | 15 | 4.0 | 11.0 | 0.00 | 0.00 | 0.00 | 80 | 1018.0 |
| 20260507091038 | 64 | 55 | 2.0 | 11.0 | 0.00 | 0.00 | 0.00 | 80 | 1018.0 |
| 20260507090535 | 64 | 311 | 3.0 | 13.0 | 0.00 | 0.00 | 0.00 | 80 | 1018.1 |
| 20260507090043 | 64 | 5 | 3.0 | 13.0 | 0.00 | 0.00 | 0.00 | 79 | 1018.0 |
| 20260507085538 | 64 | 27 | 4.0 | 12.0 | 0.00 | 0.00 | 0.00 | 79 | 1017.9 |
| 20260507085035 | 64 | 325 | 3.0 | 11.0 | 0.00 | 0.00 | 0.00 | 79 | 1017.8 |
| 20260507084543 | 64 | 0 | 4.0 | 10.0 | 0.00 | 0.00 | 0.00 | 79 | 1017.9 |
| 20260507084034 | 65 | 0 | 1.0 | 10.0 | 0.00 | 0.00 | 0.00 | 79 | 1018.1 |
| 20260507083535 | 65 | 360 | 2.0 | 8.0 | 0.00 | 0.00 | 0.00 | 79 | 1018.2 |
| 20260507083041 | 65 | 0 | 2.0 | 7.0 | 0.00 | 0.00 | 0.00 | 79 | 1018.0 |
| 20260507082536 | 65 | 0 | 1.0 | 6.0 | 0.00 | 0.00 | 0.00 | 79 | 1018.1 |
| 20260507082036 | 65 | 352 | 0.0 | 10.0 | 0.00 | 0.00 | 0.00 | 79 | 1018.0 |
| 20260507081540 | 65 | 0 | 2.0 | 12.0 | 0.00 | 0.00 | 0.00 | 79 | 1018.0 |
| 20260507081036 | 65 | 339 | 1.0 | 12.0 | 0.00 | 0.00 | 0.00 | 79 | 1018.0 |
| 20260507080538 | 65 | 360 | 2.0 | 10.0 | 0.00 | 0.00 | 0.00 | 79 | 1018.1 |
| 20260507080053 | 65 | 288 | 2.0 | 9.0 | 0.00 | 0.00 | 0.00 | 79 | 1018.2 |
| 20260507075536 | 65 | 39 | 0.0 | 10.0 | 0.00 | 0.00 | 0.00 | 79 | 1018.4 |
| 20260507075036 | 65 | 0 | 2.0 | 11.0 | 0.00 | 0.00 | 0.00 | 79 | 1018.2 |
| 20260507074552 | 65 | 44 | 3.0 | 11.0 | 0.00 | 0.00 | 0.00 | 79 | 1018.1 |
| 20260507074035 | 65 | 329 | 3.0 | 11.0 | 0.00 | 0.00 | 0.00 | 79 | 1018.3 |
| 20260507073537 | 65 | 346 | 0.0 | 12.0 | 0.00 | 0.00 | 0.00 | 80 | 1018.2 |
| 20260507073045 | 65 | 0 | 2.0 | 12.0 | 0.00 | 0.00 | 0.00 | 79 | 1018.2 |
| 20260507072534 | 65 | 5 | 2.0 | 12.0 | 0.00 | 0.00 | 0.00 | 79 | 1017.9 |
| 20260507072036 | 65 | 349 | 3.0 | 12.0 | 0.00 | 0.00 | 0.00 | 79 | 1017.9 |
| 20260507071542 | 65 | 352 | 1.0 | 15.0 | 0.00 | 0.00 | 0.00 | 79 | 1017.9 |
| 20260507071038 | 65 | 92 | 2.0 | 15.0 | 0.00 | 0.00 | 0.00 | 79 | 1018.0 |
| 20260507070536 | 66 | 45 | 2.0 | 12.0 | 0.00 | 0.00 | 0.00 | 79 | 1018.0 |
| 20260507070054 | 66 | 246 | 2.0 | 9.0 | 0.00 | 0.00 | 0.00 | 80 | 1018.1 |
| 20260507065536 | 66 | 0 | 3.0 | 10.0 | 0.00 | 0.00 | 0.00 | 80 | 1018.2 |
| 20260507065036 | 66 | 327 | 1.0 | 10.0 | 0.00 | 0.00 | 0.00 | 80 | 1018.1 |
| 20260507064605 | 66 | 13 | 3.0 | 9.0 | 0.00 | 0.00 | 0.00 | 80 | 1018.2 |
| 20260507064036 | 66 | 63 | 2.0 | 8.0 | 0.00 | 0.00 | 0.00 | 80 | 1018.2 |
| 20260507063537 | 66 | 0 | 0.0 | 9.0 | 0.00 | 0.00 | 0.00 | 80 | 1018.1 |
| 20260507063053 | 66 | 0 | 3.0 | 10.0 | 0.00 | 0.00 | 0.00 | 80 | 1018.2 |
| 20260507062536 | 66 | 5 | 1.0 | 10.0 | 0.00 | 0.00 | 0.00 | 80 | 1018.3 |
| 20260507062036 | 66 | 23 | 1.0 | 13.0 | 0.00 | 0.00 | 0.00 | 80 | 1018.0 |
| 20260507061546 | 66 | 33 | 3.0 | 13.0 | 0.00 | 0.00 | 0.00 | 80 | 1018.2 |
| 20260507061035 | 66 | 312 | 2.0 | 13.0 | 0.00 | 0.00 | 0.00 | 80 | 1018.2 |
| 20260507060535 | 66 | 11 | 2.0 | 13.0 | 0.00 | 0.00 | 0.00 | 80 | 1018.1 |
| 20260507060050 | 66 | 62 | 3.0 | 10.0 | 0.00 | 0.00 | 0.00 | 80 | 1018.1 |
| 20260507055537 | 66 | 335 | 2.0 | 11.0 | 0.00 | 0.00 | 0.00 | 79 | 1018.0 |
| 20260507055036 | 66 | 352 | 2.0 | 11.0 | 0.00 | 0.00 | 0.00 | 79 | 1017.5 |
| 20260507054544 | 66 | 18 | 2.0 | 14.0 | 0.00 | 0.00 | 0.00 | 79 | 1017.4 |
| 20260507054041 | 66 | 325 | 4.0 | 14.0 | 0.00 | 0.00 | 0.00 | 79 | 1017.5 |
| 20260507053537 | 66 | 46 | 1.0 | 18.0 | 0.00 | 0.00 | 0.00 | 79 | 1017.7 |
| 20260507053041 | 66 | 5 | 1.0 | 18.0 | 0.00 | 0.00 | 0.00 | 80 | 1017.7 |
| 20260507052538 | 66 | 11 | 3.0 | 18.0 | 0.00 | 0.00 | 0.00 | 79 | 1017.5 |
| 20260507052034 | 66 | 19 | 4.0 | 14.0 | 0.00 | 0.00 | 0.00 | 80 | 1017.3 |
| 20260507051540 | 66 | 19 | 1.0 | 10.0 | 0.00 | 0.00 | 0.00 | 80 | 1017.6 |
| 20260507051034 | 66 | 0 | 1.0 | 12.0 | 0.00 | 0.00 | 0.00 | 80 | 1017.6 |
| 20260507050534 | 66 | 350 | 3.0 | 12.0 | 0.00 | 0.00 | 0.00 | 80 | 1017.6 |
| 20260507050052 | 66 | 0 | 3.0 | 12.0 | 0.00 | 0.00 | 0.00 | 80 | 1017.8 |
| 20260507045535 | 66 | 24 | 3.0 | 12.0 | 0.00 | 0.00 | 0.00 | 80 | 1017.7 |
| 20260507045034 | 66 | 33 | 2.0 | 12.0 | 0.00 | 0.00 | 0.00 | 80 | 1017.7 |
| 20260507044546 | 66 | 0 | 2.0 | 12.0 | 0.00 | 0.00 | 0.00 | 80 | 1017.8 |
| 20260507044033 | 66 | 0 | 2.0 | 12.0 | 0.00 | 0.00 | 0.00 | 80 | 1017.6 |
| 20260507043538 | 66 | 346 | 2.0 | 12.0 | 0.00 | 0.00 | 0.00 | 80 | 1017.7 |
| 20260507043042 | 66 | 60 | 1.0 | 10.0 | 0.00 | 0.00 | 0.00 | 80 | 1017.4 |
| 20260507042534 | 66 | 24 | 0.0 | 10.0 | 0.00 | 0.00 | 0.00 | 80 | 1017.4 |
| 20260507042034 | 66 | 63 | 0.0 | 10.0 | 0.00 | 0.00 | 0.00 | 80 | 1017.1 |
| 20260507041551 | 66 | 360 | 2.0 | 12.0 | 0.00 | 0.00 | 0.00 | 80 | 1017.2 |
| 20260507041038 | 66 | 49 | 3.0 | 12.0 | 0.00 | 0.00 | 0.00 | 80 | 1017.2 |
| 20260507040534 | 66 | 44 | 4.0 | 12.0 | 0.00 | 0.00 | 0.00 | 80 | 1017.1 |
| 20260507040040 | 66 | 352 | 3.0 | 12.0 | 0.00 | 0.00 | 0.00 | 80 | 1017.0 |
| 20260507035534 | 66 | 0 | 1.0 | 12.0 | 0.00 | 0.00 | 0.00 | 80 | 1017.0 |
| 20260507035034 | 66 | 0 | 2.0 | 12.0 | 0.00 | 0.00 | 0.00 | 80 | 1017.1 |
| 20260507034550 | 66 | 315 | 3.0 | 12.0 | 0.00 | 0.00 | 0.00 | 80 | 1017.3 |
| 20260507034034 | 66 | 317 | 3.0 | 12.0 | 0.00 | 0.00 | 0.00 | 80 | 1017.3 |
| 20260507033538 | 66 | 0 | 2.0 | 13.0 | 0.00 | 0.00 | 0.00 | 80 | 1017.1 |
| 20260507033045 | 66 | 352 | 3.0 | 13.0 | 0.00 | 0.00 | 0.00 | 79 | 1017.3 |
| 20260507032535 | 66 | 0 | 5.0 | 13.0 | 0.00 | 0.00 | 0.00 | 79 | 1017.3 |
| 20260507032034 | 67 | 9 | 2.0 | 13.0 | 0.00 | 0.00 | 0.00 | 79 | 1017.3 |
| 20260507031549 | 67 | 0 | 3.0 | 13.0 | 0.00 | 0.00 | 0.00 | 79 | 1017.3 |
| 20260507031034 | 67 | 5 | 3.0 | 15.0 | 0.00 | 0.00 | 0.00 | 79 | 1017.3 |
| 20260507030535 | 67 | 0 | 4.0 | 15.0 | 0.00 | 0.00 | 0.00 | 79 | 1017.3 |
| 20260507030056 | 67 | 5 | 3.0 | 15.0 | 0.00 | 0.00 | 0.00 | 79 | 1017.1 |
| 20260507025534 | 67 | 352 | 5.0 | 16.0 | 0.00 | 0.00 | 0.00 | 79 | 1016.9 |
| 20260507025034 | 67 | 29 | 6.0 | 16.0 | 0.00 | 0.00 | 0.00 | 78 | 1016.7 |
| 20260507024547 | 67 | 332 | 3.0 | 11.0 | 0.00 | 0.00 | 0.00 | 79 | 1016.7 |
| 20260507024034 | 67 | 18 | 4.0 | 13.0 | 0.00 | 0.00 | 0.00 | 78 | 1016.6 |
| 20260507023534 | 67 | 348 | 3.0 | 13.0 | 0.00 | 0.00 | 0.00 | 78 | 1016.4 |
| 20260507023103 | 67 | 23 | 4.0 | 16.0 | 0.00 | 0.00 | 0.00 | 78 | 1016.3 |
| 20260507022534 | 67 | 337 | 3.0 | 16.0 | 0.00 | 0.00 | 0.00 | 78 | 1016.2 |
| 20260507022035 | 68 | 5 | 3.0 | 15.0 | 0.00 | 0.00 | 0.00 | 78 | 1016.2 |
| 20260507021545 | 68 | 54 | 4.0 | 14.0 | 0.00 | 0.00 | 0.00 | 77 | 1016.0 |
| 20260507021036 | 68 | 300 | 4.0 | 14.0 | 0.00 | 0.00 | 0.00 | 77 | 1015.9 |
| 20260507020540 | 68 | 352 | 2.0 | 12.0 | 0.00 | 0.00 | 0.00 | 77 | 1016.0 |
| 20260507020041 | 68 | 15 | 4.0 | 12.0 | 0.00 | 0.00 | 0.00 | 77 | 1016.0 |
| 20260507015537 | 68 | 5 | 3.0 | 20.0 | 0.00 | 0.00 | 0.00 | 77 | 1015.7 |
| 20260507015036 | 68 | 22 | 3.0 | 20.0 | 0.00 | 0.00 | 0.00 | 76 | 1015.6 |
| 20260507014558 | 69 | 10 | 4.0 | 16.0 | 0.00 | 0.00 | 0.00 | 76 | 1015.7 |
| 20260507014037 | 69 | 296 | 3.0 | 13.0 | 0.00 | 0.00 | 0.00 | 76 | 1015.5 |
| 20260507013535 | 69 | 34 | 4.0 | 14.0 | 0.00 | 0.00 | 0.00 | 76 | 1015.4 |
| 20260507013103 | 69 | 49 | 4.0 | 14.0 | 0.00 | 0.00 | 0.00 | 76 | 1015.3 |
| 20260507012536 | 70 | 295 | 3.0 | 12.0 | 0.00 | 0.00 | 0.00 | 76 | 1015.4 |
| 20260507012036 | 70 | 5 | 4.0 | 12.0 | 0.00 | 0.00 | 0.00 | 76 | 1015.3 |
| 20260507011542 | 70 | 302 | 4.0 | 13.0 | 0.00 | 0.00 | 0.00 | 75 | 1015.5 |
| 20260507011036 | 71 | 360 | 4.0 | 13.0 | 0.00 | 0.00 | 0.00 | 75 | 1015.4 |
| 20260507010537 | 71 | 313 | 4.0 | 17.0 | 0.00 | 0.00 | 0.00 | 74 | 1015.3 |
| 20260507010043 | 71 | 313 | 5.0 | 17.0 | 0.00 | 0.00 | 0.00 | 74 | 1015.1 |
| 20260507005537 | 72 | 5 | 5.0 | 13.0 | 0.00 | 0.00 | 0.00 | 74 | 1015.0 |
| 20260507005037 | 72 | 45 | 3.0 | 14.0 | 0.00 | 0.00 | 0.00 | 74 | 1014.7 |
| 20260507004551 | 72 | 13 | 3.0 | 14.0 | 0.00 | 0.00 | 0.00 | 74 | 1014.7 |
| 20260507004036 | 73 | 5 | 5.0 | 14.0 | 0.00 | 0.00 | 0.00 | 73 | 1014.7 |
| 20260507003536 | 73 | 331 | 6.0 | 20.0 | 0.00 | 0.00 | 0.00 | 73 | 1014.8 |
| 20260507003050 | 73 | 0 | 4.0 | 20.0 | 0.00 | 0.00 | 0.00 | 72 | 1014.5 |
| 20260507002537 | 74 | 346 | 5.0 | 15.0 | 0.00 | 0.00 | 0.00 | 72 | 1014.5 |
| 20260507002036 | 74 | 28 | 4.0 | 15.0 | 0.00 | 0.00 | 0.00 | 72 | 1014.6 |
| 20260507001601 | 75 | 314 | 5.0 | 15.0 | 0.00 | 0.00 | 0.00 | 72 | 1014.5 |
| 20260507001037 | 75 | 349 | 4.0 | 16.0 | 0.00 | 0.00 | 0.00 | 72 | 1014.3 |
| 20260507000536 | 76 | 32 | 4.0 | 16.0 | 0.00 | 0.00 | 0.00 | 71 | 1014.2 |
| 20260507000044 | 76 | 306 | 6.0 | 14.0 | 0.00 | 0.00 | 0.00 | 71 | 1014.1 |
| 20260506235537 | 77 | 11 | 5.0 | 15.0 | 0.00 | 0.00 | 0.00 | 71 | 1014.1 |
| 20260506235035 | 78 | 23 | 3.0 | 20.0 | 0.00 | 0.00 | 0.00 | 71 | 1014.1 |
| 20260506234541 | 78 | 329 | 5.0 | 20.0 | 0.00 | 0.00 | 0.00 | 71 | 1013.9 |
| 20260506234038 | 78 | 329 | 4.0 | 18.0 | 0.00 | 0.00 | 0.00 | 71 | 1013.8 |
| 20260506233539 | 79 | 352 | 6.0 | 18.0 | 0.00 | 0.00 | 0.00 | 70 | 1013.9 |
| 20260506233045 | 79 | 5 | 2.0 | 14.0 | 0.00 | 0.00 | 0.00 | 71 | 1013.9 |
| 20260506232536 | 80 | 14 | 4.0 | 14.0 | 0.00 | 0.00 | 0.00 | 71 | 1013.8 |
| 20260506232037 | 81 | 328 | 5.0 | 14.0 | 0.00 | 0.00 | 0.00 | 71 | 1013.6 |
| 20260506231549 | 82 | 349 | 5.0 | 14.0 | 0.00 | 0.00 | 0.00 | 71 | 1013.5 |
| 20260506231036 | 82 | 15 | 4.0 | 14.0 | 0.00 | 0.00 | 0.00 | 71 | 1013.5 |
| 20260506230536 | 83 | 0 | 4.0 | 14.0 | 0.00 | 0.00 | 0.00 | 71 | 1013.5 |
| 20260506230051 | 83 | 67 | 3.0 | 13.0 | 0.00 | 0.00 | 0.00 | 72 | 1013.3 |
| 20260506225536 | 83 | 89 | 2.0 | 13.0 | 0.00 | 0.00 | 0.00 | 72 | 1013.2 |
| 20260506225037 | 84 | 74 | 3.0 | 13.0 | 0.00 | 0.00 | 0.00 | 73 | 1013.1 |
| 20260506224544 | 84 | 0 | 3.0 | 10.0 | 0.00 | 0.00 | 0.00 | 73 | 1013.0 |
| 20260506224037 | 84 | 54 | 4.0 | 11.0 | 0.00 | 0.00 | 0.00 | 72 | 1013.1 |
| 20260506223536 | 84 | 0 | 1.0 | 11.0 | 0.00 | 0.00 | 0.00 | 72 | 1012.9 |
| 20260506223104 | 85 | 0 | 2.0 | 13.0 | 0.00 | 0.00 | 0.00 | 72 | 1012.8 |
| 20260506222537 | 85 | 10 | 3.0 | 13.0 | 0.00 | 0.00 | 0.00 | 72 | 1012.8 |
| 20260506222037 | 85 | 22 | 2.0 | 11.0 | 0.00 | 0.00 | 0.00 | 72 | 1012.8 |
| 20260506221540 | 86 | 0 | 2.0 | 11.0 | 0.00 | 0.00 | 0.00 | 71 | 1012.8 |
| 20260506221036 | 86 | 345 | 2.0 | 11.0 | 0.00 | 0.00 | 0.00 | 71 | 1012.7 |
| 20260506220536 | 87 | 0 | 2.0 | 10.0 | 0.00 | 0.00 | 0.00 | 70 | 1012.7 |
| 20260506220039 | 87 | 327 | 3.0 | 10.0 | 0.00 | 0.00 | 0.00 | 69 | 1012.5 |
| 20260506215537 | 88 | 5 | 0.0 | 9.0 | 0.00 | 0.00 | 0.00 | 68 | 1012.7 |
| 20260506215036 | 88 | 78 | 1.0 | 9.0 | 0.00 | 0.00 | 0.00 | 67 | 1012.5 |
| 20260506214545 | 89 | 5 | 1.0 | 6.0 | 0.00 | 0.00 | 0.00 | 66 | 1012.7 |
| 20260506214037 | 89 | 0 | 1.0 | 4.0 | 0.00 | 0.00 | 0.00 | 66 | 1012.5 |
| 20260506213535 | 89 | 76 | 1.0 | 6.0 | 0.00 | 0.00 | 0.00 | 65 | 1012.5 |
| 20260506213042 | 89 | 0 | 1.0 | 6.0 | 0.00 | 0.00 | 0.00 | 66 | 1012.4 |
| 20260506212537 | 88 | 0 | 1.0 | 4.0 | 0.00 | 0.00 | 0.00 | 66 | 1012.4 |
| 20260506212040 | 88 | 0 | 1.0 | 4.0 | 0.00 | 0.00 | 0.00 | 66 | 1012.5 |
| 20260506211544 | 88 | 91 | 0.0 | 4.0 | 0.00 | 0.00 | 0.00 | 67 | 1012.7 |
| 20260506211036 | 88 | 0 | 1.0 | 4.0 | 0.00 | 0.00 | 0.00 | 67 | 1012.9 |
| 20260506210536 | 88 | 80 | 1.0 | 4.0 | 0.00 | 0.00 | 0.00 | 66 | 1012.9 |
| 20260506210051 | 89 | 0 | 0.0 | 4.0 | 0.00 | 0.00 | 0.00 | 66 | 1012.9 |
| 20260506205536 | 89 | 0 | 1.0 | 4.0 | 0.00 | 0.00 | 0.00 | 65 | 1013.1 |
| 20260506205036 | 89 | 0 | 0.0 | 6.0 | 0.00 | 0.00 | 0.00 | 65 | 1013.0 |
| 20260506204548 | 89 | 0 | 1.0 | 6.0 | 0.00 | 0.00 | 0.00 | 65 | 1013.0 |
| 20260506204036 | 90 | 0 | 0.0 | 1.0 | 0.00 | 0.00 | 0.00 | 64 | 1013.0 |
| 20260506203536 | 90 | 0 | 0.0 | 2.0 | 0.00 | 0.00 | 0.00 | 63 | 1013.0 |
| 20260506203047 | 89 | 0 | 0.0 | 3.0 | 0.00 | 0.00 | 0.00 | 63 | 1013.1 |
| 20260506202536 | 90 | 0 | 0.0 | 6.0 | 0.00 | 0.00 | 0.00 | 63 | 1013.1 |
| 20260506202037 | 90 | 0 | 1.0 | 6.0 | 0.00 | 0.00 | 0.00 | 63 | 1013.2 |
| 20260506201550 | 90 | 82 | 1.0 | 7.0 | 0.00 | 0.00 | 0.00 | 63 | 1013.1 |
| 20260506201040 | 90 | 98 | 1.0 | 7.0 | 0.00 | 0.00 | 0.00 | 64 | 1013.2 |
| 20260506200536 | 91 | 101 | 1.0 | 7.0 | 0.00 | 0.00 | 0.00 | 64 | 1013.1 |
| 20260506195537 | 90 | 0 | 0.0 | 7.0 | 0.00 | 0.00 | 0.00 | 64 | 1013.1 |
| 20260506195036 | 90 | 113 | 1.0 | 7.0 | 0.00 | 0.00 | 0.00 | 64 | 1013.3 |
| 20260506194553 | 90 | 0 | 1.0 | 5.0 | 0.00 | 0.00 | 0.00 | 66 | 1013.4 |
| 20260506194036 | 89 | 74 | 1.0 | 5.0 | 0.00 | 0.00 | 0.00 | 66 | 1013.2 |
| 20260506193540 | 89 | 0 | 1.0 | 6.0 | 0.00 | 0.00 | 0.00 | 66 | 1013.4 |
| 20260506193047 | 89 | 0 | 0.0 | 6.0 | 0.00 | 0.00 | 0.00 | 65 | 1013.5 |
| 20260506192536 | 89 | 73 | 2.0 | 6.0 | 0.00 | 0.00 | 0.00 | 67 | 1013.6 |
| 20260506192038 | 88 | 0 | 0.0 | 6.0 | 0.00 | 0.00 | 0.00 | 68 | 1013.4 |
| 20260506191552 | 88 | 138 | 0.0 | 6.0 | 0.00 | 0.00 | 0.00 | 68 | 1013.5 |
| 20260506191036 | 88 | 87 | 2.0 | 5.0 | 0.00 | 0.00 | 0.00 | 68 | 1013.6 |
| 20260506190535 | 88 | 0 | 0.0 | 4.0 | 0.00 | 0.00 | 0.00 | 69 | 1013.7 |
| 20260506190049 | 87 | 0 | 0.0 | 6.0 | 0.00 | 0.00 | 0.00 | 68 | 1013.7 |
| 20260506185535 | 88 | 0 | 0.0 | 8.0 | 0.00 | 0.00 | 0.00 | 69 | 1013.7 |
| 20260506185039 | 88 | 0 | 1.0 | 8.0 | 0.00 | 0.00 | 0.00 | 68 | 1013.9 |
| 20260506184554 | 88 | 56 | 2.0 | 7.0 | 0.00 | 0.00 | 0.00 | 68 | 1013.7 |
| 20260506184037 | 88 | 75 | 2.0 | 7.0 | 0.00 | 0.00 | 0.00 | 68 | 1013.9 |
| 20260506183537 | 88 | 90 | 3.0 | 9.0 | 0.00 | 0.00 | 0.00 | 69 | 1014.0 |
| 20260506183050 | 89 | 0 | 2.0 | 9.0 | 0.00 | 0.00 | 0.00 | 69 | 1013.9 |
| 20260506182536 | 89 | 66 | 0.0 | 7.0 | 0.00 | 0.00 | 0.00 | 68 | 1014.2 |
| 20260506182036 | 89 | 88 | 2.0 | 7.0 | 0.00 | 0.00 | 0.00 | 69 | 1014.1 |
| 20260506181549 | 89 | 0 | 0.0 | 5.0 | 0.00 | 0.00 | 0.00 | 68 | 1014.2 |
| 20260506181036 | 89 | 95 | 0.0 | 6.0 | 0.00 | 0.00 | 0.00 | 68 | 1014.3 |
| 20260506180536 | 88 | 87 | 1.0 | 6.0 | 0.00 | 0.00 | 0.00 | 70 | 1014.3 |
| 20260506180052 | 88 | 0 | 1.0 | 6.0 | 0.00 | 0.00 | 0.00 | 69 | 1014.3 |
| 20260506175535 | 88 | 5 | 1.0 | 8.0 | 0.00 | 0.00 | 0.00 | 70 | 1014.3 |
| 20260506175036 | 88 | 0 | 2.0 | 8.0 | 0.00 | 0.00 | 0.00 | 71 | 1014.3 |
| 20260506174540 | 87 | 77 | 1.0 | 7.0 | 0.00 | 0.00 | 0.00 | 72 | 1014.2 |
| 20260506174039 | 87 | 0 | 2.0 | 5.0 | 0.00 | 0.00 | 0.00 | 72 | 1014.3 |
| 20260506173538 | 86 | 0 | 0.0 | 8.0 | 0.00 | 0.00 | 0.00 | 74 | 1014.2 |
| 20260506173043 | 85 | 61 | 2.0 | 8.0 | 0.00 | 0.00 | 0.00 | 74 | 1014.4 |
| 20260506172536 | 85 | 76 | 0.0 | 6.0 | 0.00 | 0.00 | 0.00 | 75 | 1014.4 |
| 20260506172037 | 85 | 0 | 0.0 | 6.0 | 0.00 | 0.00 | 0.00 | 76 | 1014.6 |
| 20260506171549 | 84 | 318 | 0.0 | 5.0 | 0.00 | 0.00 | 0.00 | 77 | 1014.5 |
| 20260506171036 | 84 | 0 | 1.0 | 4.0 | 0.00 | 0.00 | 0.00 | 78 | 1014.5 |
| 20260506170537 | 83 | 0 | 0.0 | 4.0 | 0.00 | 0.00 | 0.00 | 78 | 1014.5 |
| 20260506170041 | 83 | 0 | 0.0 | 4.0 | 0.00 | 0.00 | 0.00 | 79 | 1014.5 |
| 20260506165536 | 83 | 5 | 0.0 | 3.0 | 0.00 | 0.00 | 0.00 | 79 | 1014.5 |
| 20260506165036 | 83 | 0 | 0.0 | 4.0 | 0.00 | 0.00 | 0.00 | 80 | 1014.5 |
| 20260506164543 | 83 | 0 | 0.0 | 5.0 | 0.00 | 0.00 | 0.00 | 80 | 1014.5 |
| 20260506164036 | 82 | 0 | 0.0 | 5.0 | 0.00 | 0.00 | 0.00 | 80 | 1014.5 |
| 20260506163536 | 82 | 0 | 0.0 | 3.0 | 0.00 | 0.00 | 0.00 | 79 | 1014.5 |
| 20260506163047 | 82 | 0 | 0.0 | 0.0 | 0.00 | 0.00 | 0.00 | 81 | 1014.6 |
| 20260506162537 | 81 | 0 | 0.0 | 1.0 | 0.00 | 0.00 | 0.00 | 81 | 1014.6 |
| 20260506162039 | 81 | 0 | 0.0 | 2.0 | 0.00 | 0.00 | 0.00 | 82 | 1014.5 |